Time,TemperatureF,DewpointF,PressureIn,WindDirection,WindDirectionDegrees,WindSpeedMPH,WindSpeedGustMPH,Humidity,HourlyPrecipIn,Conditions,Clouds,dailyrainin,SoftwareType,DateUTC
2013-01-29 00:01:00,40.0,39.0,30.06,South,186,1.0,6.0,95,0.04,,,0.45,,2013-01-29 08:01:00,
2013-01-29 00:11:00,40.0,39.0,30.06,South,186,1.0,6.0,95,0.04,,,0.45,,2013-01-29 08:11:00,
2013-01-29 00:21:00,40.0,39.0,30.07,South,181,0.0,3.0,95,0.04,,,0.46,,2013-01-29 08:21:00,
2013-01-29 00:31:00,40.0,39.0,30.07,South,169,0.0,4.0,95,0.04,,,0.47,,2013-01-29 08:31:00,
2013-01-29 00:41:00,40.0,39.0,30.07,South,169,0.0,4.0,95,0.04,,,0.47,,2013-01-29 08:41:00,
2013-01-29 00:52:00,40.0,39.0,30.07,SSE,166,1.0,4.0,95,0.04,,,0.48,,2013-01-29 08:52:00,
2013-01-29 01:01:00,40.0,39.0,30.08,South,175,1.0,5.0,95,0.03,,,0.48,,2013-01-29 09:01:00,
2013-01-29 01:11:00,40.0,39.0,30.08,South,175,1.0,5.0,95,0.03,,,0.48,,2013-01-29 09:11:00,
2013-01-29 01:21:00,40.0,39.0,30.09,WSW,253,0.0,2.0,95,0.03,,,0.49,,2013-01-29 09:21:00,
2013-01-29 01:31:00,40.0,39.0,30.08,SSE,155,1.0,4.0,96,0.03,,,0.50,,2013-01-29 09:31:00,
2013-01-29 01:42:00,40.0,39.0,30.08,SSE,155,1.0,4.0,96,0.03,,,0.50,,2013-01-29 09:42:00,
2013-01-29 01:52:00,40.0,39.0,30.09,South,169,1.0,7.0,96,0.02,,,0.50,,2013-01-29 09:52:00,
2013-01-29 02:01:00,40.0,39.0,30.09,SSE,155,0.0,5.0,96,0.03,,,0.51,,2013-01-29 10:01:00,
2013-01-29 02:11:00,40.0,39.0,30.09,SSE,155,0.0,5.0,96,0.03,,,0.51,,2013-01-29 10:11:00,
2013-01-29 02:21:00,40.0,39.0,30.09,South,172,0.0,2.0,96,0.03,,,0.52,,2013-01-29 10:21:00,
2013-01-29 02:32:00,40.0,39.0,30.10,South,172,0.0,2.0,96,0.03,,,0.53,,2013-01-29 10:32:00,
2013-01-29 02:41:00,40.0,39.0,30.10,South,172,0.0,2.0,96,0.03,,,0.53,,2013-01-29 10:41:00,
2013-01-29 02:52:00,41.0,40.0,30.11,SSE,155,0.0,4.0,96,0.05,,,0.55,,2013-01-29 10:52:00,
2013-01-29 03:01:00,41.0,40.0,30.11,SSE,151,0.0,4.0,96,0.05,,,0.56,,2013-01-29 11:01:00,
2013-01-29 03:11:00,41.0,40.0,30.11,SSE,151,0.0,4.0,96,0.05,,,0.56,,2013-01-29 11:11:00,
2013-01-29 03:21:00,41.0,40.0,30.11,South,188,0.0,3.0,96,0.05,,,0.57,,2013-01-29 11:21:00,
2013-01-29 03:31:00,41.0,40.0,30.11,South,169,1.0,3.0,96,0.05,,,0.58,,2013-01-29 11:31:00,
2013-01-29 03:41:00,41.0,40.0,30.11,South,169,1.0,3.0,96,0.05,,,0.58,,2013-01-29 11:41:00,
2013-01-29 03:52:00,41.0,40.0,30.11,South,175,0.0,3.0,96,0.03,,,0.58,,2013-01-29 11:52:00,
2013-01-29 04:02:00,41.0,40.0,30.11,South,175,0.0,3.0,96,0.03,,,0.59,,2013-01-29 12:02:00,
2013-01-29 04:12:00,41.0,40.0,30.11,South,175,0.0,3.0,96,0.03,,,0.59,,2013-01-29 12:12:00,
2013-01-29 04:21:00,41.0,40.0,30.12,SSE,147,2.0,4.0,96,0.03,,,0.60,,2013-01-29 12:21:00,
2013-01-29 04:32:00,41.0,40.0,30.13,SSW,196,0.0,5.0,96,0.03,,,0.61,,2013-01-29 12:32:00,
2013-01-29 04:42:00,41.0,40.0,30.13,SSW,196,0.0,5.0,96,0.03,,,0.61,,2013-01-29 12:42:00,
2013-01-29 04:52:00,41.0,40.0,30.13,SW,219,0.0,1.0,96,0.04,,,0.62,,2013-01-29 12:52:00,
2013-01-29 05:01:00,41.0,40.0,30.13,SE,133,0.0,5.0,96,0.04,,,0.63,,2013-01-29 13:01:00,
2013-01-29 05:11:00,41.0,40.0,30.13,SE,133,0.0,5.0,96,0.04,,,0.63,,2013-01-29 13:11:00,
2013-01-29 05:22:00,41.0,40.0,30.13,South,186,1.0,3.0,96,0.04,,,0.64,,2013-01-29 13:22:00,
2013-01-29 05:31:00,42.0,41.0,30.13,SSW,195,0.0,4.0,96,0.04,,,0.65,,2013-01-29 13:31:00,
2013-01-29 05:42:00,42.0,41.0,30.13,SSW,195,0.0,4.0,96,0.04,,,0.65,,2013-01-29 13:42:00,
2013-01-29 05:52:00,42.0,41.0,30.14,SW,215,0.0,3.0,96,0.03,,,0.65,,2013-01-29 13:52:00,
2013-01-29 06:01:00,42.0,41.0,30.14,SW,215,0.0,2.0,96,0.02,,,0.65,,2013-01-29 14:01:00,
2013-01-29 06:11:00,42.0,41.0,30.14,South,176,0.0,5.0,96,0.02,,,0.66,,2013-01-29 14:11:00,
2013-01-29 06:21:00,42.0,41.0,30.14,South,176,0.0,5.0,96,0.02,,,0.66,,2013-01-29 14:21:00,
2013-01-29 06:32:00,42.0,41.0,30.15,South,179,0.0,3.0,96,0.01,,,0.66,,2013-01-29 14:32:00,
2013-01-29 06:42:00,42.0,41.0,30.15,South,179,0.0,3.0,96,0.01,,,0.66,,2013-01-29 14:42:00,
2013-01-29 06:52:00,42.0,41.0,30.16,South,179,0.0,1.0,96,0.01,,,0.66,,2013-01-29 14:52:00,
2013-01-29 07:01:00,42.0,41.0,30.17,South,179,0.0,1.0,96,0.02,,,0.67,,2013-01-29 15:01:00,
2013-01-29 07:11:00,42.0,41.0,30.17,South,179,0.0,1.0,96,0.02,,,0.67,,2013-01-29 15:11:00,
2013-01-29 07:21:00,42.0,41.0,30.17,South,177,0.0,1.0,96,0.01,,,0.67,,2013-01-29 15:21:00,
2013-01-29 07:32:00,42.0,41.0,30.17,SE,132,0.0,2.0,96,0.01,,,0.67,,2013-01-29 15:32:00,
2013-01-29 07:42:00,42.0,41.0,30.17,SE,132,0.0,2.0,96,0.01,,,0.67,,2013-01-29 15:42:00,
2013-01-29 07:53:00,42.0,41.0,30.18,South,190,1.0,3.0,96,0.02,,,0.68,,2013-01-29 15:53:00,
2013-01-29 08:01:00,42.0,41.0,30.19,SSE,159,0.0,4.0,96,0.01,,,0.68,,2013-01-29 16:01:00,
2013-01-29 08:12:00,42.0,41.0,30.19,SSE,159,0.0,4.0,96,0.01,,,0.68,,2013-01-29 16:12:00,
2013-01-29 08:21:00,42.0,41.0,30.19,SSE,155,1.0,3.0,96,0.01,,,0.68,,2013-01-29 16:21:00,
2013-01-29 08:31:00,42.0,41.0,30.20,SSE,155,0.0,1.0,96,0.01,,,0.68,,2013-01-29 16:31:00,
2013-01-29 08:42:00,42.0,41.0,30.20,SSE,155,0.0,1.0,96,0.01,,,0.68,,2013-01-29 16:42:00,
2013-01-29 08:53:00,42.0,41.0,30.20,SSW,207,0.0,1.0,96,0.00,,,0.68,,2013-01-29 16:53:00,
2013-01-29 09:02:00,42.0,41.0,30.22,SSE,148,0.0,3.0,96,0.00,,,0.68,,2013-01-29 17:02:00,
2013-01-29 09:11:00,42.0,41.0,30.22,SSE,148,0.0,3.0,96,0.00,,,0.68,,2013-01-29 17:11:00,
2013-01-29 09:21:00,42.0,41.0,30.22,South,173,1.0,4.0,96,0.00,,,0.68,,2013-01-29 17:21:00,
2013-01-29 09:31:00,42.0,41.0,30.23,SSE,153,1.0,2.0,96,0.00,,,0.68,,2013-01-29 17:31:00,
2013-01-29 09:41:00,42.0,41.0,30.23,SSE,153,1.0,2.0,96,0.00,,,0.68,,2013-01-29 17:41:00,
2013-01-29 09:52:00,42.0,41.0,30.23,SSE,155,0.0,3.0,96,0.00,,,0.68,,2013-01-29 17:52:00,
2013-01-29 10:02:00,43.0,42.0,30.23,South,184,0.0,3.0,96,0.00,,,0.68,,2013-01-29 18:02:00,
2013-01-29 10:12:00,43.0,42.0,30.23,South,184,0.0,3.0,96,0.00,,,0.68,,2013-01-29 18:12:00,
2013-01-29 10:21:00,43.0,42.0,30.24,South,184,0.0,2.0,96,0.00,,,0.68,,2013-01-29 18:21:00,
2013-01-29 10:33:00,43.0,42.0,30.24,SSW,193,0.0,2.0,96,0.00,,,0.68,,2013-01-29 18:33:00,
2013-01-29 10:41:00,43.0,42.0,30.24,SSW,193,0.0,2.0,96,0.00,,,0.68,,2013-01-29 18:41:00,
2013-01-29 10:52:00,43.0,42.0,30.25,SSW,211,0.0,4.0,96,0.00,,,0.68,,2013-01-29 18:52:00,
2013-01-29 11:01:00,43.0,42.0,30.26,SSW,206,1.0,2.0,96,0.00,,,0.68,,2013-01-29 19:01:00,
2013-01-29 11:11:00,43.0,42.0,30.26,SSW,206,1.0,2.0,96,0.00,,,0.68,,2013-01-29 19:11:00,
2013-01-29 11:22:00,44.0,43.0,30.27,SSE,162,2.0,5.0,96,0.01,,,0.69,,2013-01-29 19:22:00,
2013-01-29 11:31:00,44.0,43.0,30.28,SSW,197,0.0,2.0,96,0.01,,,0.69,,2013-01-29 19:31:00,
2013-01-29 11:41:00,44.0,43.0,30.28,SSW,197,0.0,2.0,96,0.01,,,0.69,,2013-01-29 19:41:00,
2013-01-29 11:52:00,44.0,43.0,30.28,SW,231,1.0,4.0,96,0.01,,,0.68,,2013-01-29 19:52:00,
2013-01-29 12:01:00,44.0,43.0,30.28,SSE,161,0.0,7.0,96,0.02,,,0.69,,2013-01-29 20:01:00,
2013-01-29 12:11:00,44.0,43.0,30.28,SSE,161,0.0,7.0,96,0.02,,,0.69,,2013-01-29 20:11:00,
2013-01-29 12:21:00,44.0,43.0,30.28,SW,230,0.0,4.0,96,0.01,,,0.69,,2013-01-29 20:21:00,
2013-01-29 12:32:00,44.0,43.0,30.28,SW,221,1.0,6.0,96,0.01,,,0.69,,2013-01-29 20:32:00,
2013-01-29 12:41:00,44.0,43.0,30.28,SW,221,1.0,6.0,96,0.01,,,0.69,,2013-01-29 20:41:00,
2013-01-29 12:53:00,44.0,43.0,30.28,WSW,241,3.0,7.0,96,0.01,,,0.67,,2013-01-29 20:53:00,
2013-01-29 13:01:00,44.0,43.0,30.28,SSW,196,2.0,6.0,96,0.00,,,0.67,,2013-01-29 21:01:00,
2013-01-29 13:11:00,44.0,43.0,30.28,SSW,196,2.0,6.0,96,0.00,,,0.67,,2013-01-29 21:11:00,
2013-01-29 13:21:00,44.0,43.0,30.29,South,174,2.0,9.0,96,0.00,,,0.67,,2013-01-29 21:21:00,
2013-01-29 13:32:00,44.0,43.0,30.29,South,188,2.0,7.0,96,0.00,,,0.67,,2013-01-29 21:32:00,
2013-01-29 13:41:00,44.0,43.0,30.29,South,188,2.0,7.0,96,0.00,,,0.67,,2013-01-29 21:41:00,
2013-01-29 13:52:00,44.0,43.0,30.28,SW,224,0.0,7.0,96,0.00,,,0.62,,2013-01-29 21:52:00,
2013-01-29 14:01:00,44.0,43.0,30.29,SSE,163,1.0,7.0,96,0.00,,,0.62,,2013-01-29 22:01:00,
2013-01-29 14:11:00,44.0,43.0,30.29,SSE,163,1.0,7.0,96,0.00,,,0.62,,2013-01-29 22:11:00,
2013-01-29 14:21:00,44.0,43.0,30.28,SSE,167,1.0,5.0,96,0.01,,,0.63,,2013-01-29 22:21:00,
2013-01-29 14:32:00,44.0,43.0,30.29,SSW,194,2.0,6.0,96,0.01,,,0.63,,2013-01-29 22:32:00,
2013-01-29 14:42:00,44.0,43.0,30.29,SSW,194,2.0,6.0,96,0.01,,,0.63,,2013-01-29 22:42:00,
2013-01-29 14:53:00,44.0,43.0,30.30,South,180,1.0,5.0,96,0.01,,,0.57,,2013-01-29 22:53:00,
2013-01-29 15:01:00,44.0,43.0,30.29,South,180,1.0,6.0,96,0.01,,,0.57,,2013-01-29 23:01:00,
2013-01-29 15:11:00,44.0,43.0,30.29,South,180,1.0,6.0,96,0.01,,,0.57,,2013-01-29 23:11:00,
2013-01-29 15:22:00,44.0,43.0,30.29,SW,214,0.0,5.0,96,0.00,,,0.57,,2013-01-29 23:22:00,
2013-01-29 15:32:00,44.0,43.0,30.30,SE,127,0.0,5.0,96,0.01,,,0.58,,2013-01-29 23:32:00,
2013-01-29 15:41:00,44.0,43.0,30.30,SE,127,0.0,5.0,96,0.01,,,0.58,,2013-01-29 23:41:00,
2013-01-29 15:53:00,44.0,43.0,30.30,SE,144,1.0,6.0,96,-99.99,,,-99.99,,2013-01-29 23:53:00,
2013-01-29 16:01:00,44.0,43.0,30.30,SW,232,0.0,6.0,96,-99.99,,,-99.99,,2013-01-30 00:01:00,
2013-01-29 16:11:00,44.0,43.0,30.30,SW,232,0.0,6.0,96,-99.99,,,-99.99,,2013-01-30 00:11:00,
2013-01-29 16:21:00,44.0,43.0,30.31,SSW,213,2.0,9.0,96,-99.99,,,-99.99,,2013-01-30 00:21:00,
2013-01-29 16:32:00,44.0,43.0,30.32,WSW,246,2.0,9.0,96,-99.99,,,-99.99,,2013-01-30 00:32:00,
2013-01-29 16:42:00,44.0,43.0,30.32,WSW,246,2.0,9.0,96,-99.99,,,-99.99,,2013-01-30 00:42:00,
2013-01-29 16:52:00,44.0,43.0,30.32,SSE,159,0.0,5.0,96,0.02,,,-99.99,,2013-01-30 00:52:00,
2013-01-29 17:01:00,44.0,43.0,30.33,SSW,211,1.0,3.0,96,0.02,,,-99.99,,2013-01-30 01:01:00,
2013-01-29 17:11:00,44.0,43.0,30.33,SSW,211,1.0,3.0,96,0.02,,,-99.99,,2013-01-30 01:11:00,
2013-01-29 17:22:00,44.0,43.0,30.33,SW,218,1.0,7.0,96,0.01,,,-99.99,,2013-01-30 01:22:00,
2013-01-29 17:31:00,44.0,43.0,30.33,South,173,2.0,6.0,96,0.01,,,-99.99,,2013-01-30 01:31:00,
2013-01-29 17:42:00,44.0,43.0,30.33,South,173,2.0,6.0,96,0.01,,,-99.99,,2013-01-30 01:42:00,
2013-01-29 17:52:00,44.0,43.0,30.33,South,176,1.0,6.0,96,0.00,,,-99.99,,2013-01-30 01:52:00,
2013-01-29 18:01:00,43.0,42.0,30.32,SSW,202,2.0,4.0,96,0.00,,,-99.99,,2013-01-30 02:01:00,
2013-01-29 18:11:00,43.0,42.0,30.32,SSW,202,2.0,4.0,96,0.00,,,-99.99,,2013-01-30 02:11:00,
2013-01-29 18:21:00,43.0,42.0,30.33,SSW,204,1.0,10.0,96,0.00,,,-99.99,,2013-01-30 02:21:00,
2013-01-29 18:32:00,43.0,42.0,30.33,SW,225,1.0,4.0,96,0.00,,,-99.99,,2013-01-30 02:32:00,
2013-01-29 18:41:00,43.0,42.0,30.33,SW,225,1.0,4.0,96,0.00,,,-99.99,,2013-01-30 02:41:00,
2013-01-29 18:53:00,43.0,42.0,30.33,SE,142,1.0,5.0,96,0.00,,,-99.99,,2013-01-30 02:53:00,
2013-01-29 19:02:00,43.0,42.0,30.33,SSE,150,1.0,7.0,96,0.00,,,-99.99,,2013-01-30 03:02:00,
2013-01-29 19:11:00,43.0,42.0,30.33,SSE,150,1.0,7.0,96,0.00,,,-99.99,,2013-01-30 03:11:00,
2013-01-29 19:21:00,43.0,42.0,30.33,WSW,241,3.0,7.0,96,0.00,,,-99.99,,2013-01-30 03:21:00,
2013-01-29 19:31:00,43.0,42.0,30.34,South,186,1.0,7.0,96,0.00,,,-99.99,,2013-01-30 03:31:00,
2013-01-29 19:41:00,43.0,42.0,30.34,South,186,1.0,7.0,96,0.00,,,-99.99,,2013-01-30 03:41:00,
2013-01-29 19:52:00,43.0,42.0,30.33,South,182,1.0,7.0,96,0.00,,,-99.99,,2013-01-30 03:52:00,
2013-01-29 20:01:00,43.0,42.0,30.33,SSE,153,1.0,5.0,96,0.00,,,-99.99,,2013-01-30 04:01:00,
2013-01-29 20:11:00,43.0,42.0,30.33,SSE,153,1.0,5.0,96,0.00,,,-99.99,,2013-01-30 04:11:00,
2013-01-29 20:21:00,43.0,42.0,30.33,SSE,167,2.0,6.0,96,0.00,,,-99.99,,2013-01-30 04:21:00,
2013-01-29 20:31:00,43.0,42.0,30.33,SSE,167,2.0,6.0,96,0.00,,,-99.99,,2013-01-30 04:31:00,
2013-01-29 20:41:00,43.0,42.0,30.33,SSE,167,2.0,6.0,96,0.00,,,-99.99,,2013-01-30 04:41:00,
2013-01-29 20:52:00,43.0,42.0,30.34,SSW,202,0.0,10.0,95,0.00,,,-99.99,,2013-01-30 04:52:00,
2013-01-29 21:03:00,43.0,42.0,30.34,SSW,203,0.0,3.0,95,0.00,,,-99.99,,2013-01-30 05:03:00,
2013-01-29 21:11:00,43.0,42.0,30.34,SSW,205,2.0,7.0,95,0.00,,,-99.99,,2013-01-30 05:11:00,
2013-01-29 21:22:00,43.0,42.0,30.34,SSW,205,2.0,7.0,95,0.00,,,-99.99,,2013-01-30 05:22:00,
2013-01-29 21:31:00,43.0,42.0,30.35,SE,145,6.0,13.0,95,0.02,,,-99.99,,2013-01-30 05:31:00,
2013-01-29 21:42:00,43.0,42.0,30.35,SE,145,6.0,13.0,95,0.02,,,-99.99,,2013-01-30 05:42:00,
2013-01-29 21:52:00,43.0,42.0,30.34,South,175,3.0,9.0,95,0.04,,,-99.99,,2013-01-30 05:52:00,
2013-01-29 22:02:00,43.0,42.0,30.33,SSE,165,0.0,6.0,95,0.04,,,-99.99,,2013-01-30 06:02:00,
2013-01-29 22:11:00,43.0,42.0,30.33,SSE,165,0.0,6.0,95,0.04,,,-99.99,,2013-01-30 06:11:00,
2013-01-29 22:21:00,43.0,42.0,30.32,SSW,195,1.0,5.0,95,0.04,,,-99.99,,2013-01-30 06:21:00,
2013-01-29 22:31:00,43.0,42.0,30.33,SSW,210,0.0,3.0,95,0.02,,,-99.99,,2013-01-30 06:31:00,
2013-01-29 22:41:00,43.0,42.0,30.33,SSW,210,0.0,3.0,95,0.02,,,-99.99,,2013-01-30 06:41:00,
2013-01-29 22:52:00,43.0,42.0,30.32,South,174,0.0,4.0,95,0.00,,,-99.99,,2013-01-30 06:52:00,
2013-01-29 23:01:00,43.0,42.0,30.32,South,182,1.0,4.0,95,0.00,,,-99.99,,2013-01-30 07:01:00,
2013-01-29 23:11:00,43.0,42.0,30.32,South,182,1.0,4.0,95,0.00,,,-99.99,,2013-01-30 07:11:00,
2013-01-29 23:21:00,43.0,42.0,30.32,SSW,194,1.0,2.0,95,0.00,,,-99.99,,2013-01-30 07:21:00,
2013-01-29 23:31:00,42.0,41.0,30.31,SSE,168,0.0,2.0,95,0.01,,,-99.99,,2013-01-30 07:31:00,
2013-01-29 23:41:00,42.0,41.0,30.31,SSE,168,0.0,2.0,95,0.01,,,-99.99,,2013-01-30 07:41:00,
2013-01-29 23:52:00,42.0,41.0,30.31,SSE,150,0.0,3.0,95,0.01,,,-99.99,,2013-01-30 07:52:00,